Theta_e
303 302 301 300 300 299 298 298 297 296 296 295 295 294 294 294 293 293 293 292 292 291 291 290 289 289 288 287 287 286 285 285 284 284 283 283 283 282 282 282 281 281 281 281 280 280 280 280 279 279 279 280 280 280 280 280 280 281 281 281 281 281 281 281 280 280 281 281 281 281 281 281 281 281 281 281 281 282 282 282 283 282 282 282 282
301 301 301 300 300 300 299 298 297 297 296 296 295 295 294 294 293 293 293 292 292 291 291 290 289 289 288 287 287 286 286 285 285 284 284 283 283 282 282 282 281 281 281 281 280 280 280 280 279 279 279 279 280 280 279 279 280 280 280 280 281 280 280 280 280 280 280 280 281 280 280 281 281 281 282 282 282 282 283 283 282 282 281 281 281
301 300 300 300 300 300 299 299 298 298 297 296 295 295 294 294 293 293 293 292 292 291 291 290 289 289 288 287 287 286 286 286 285 285 284 283 283 282 282 282 281 281 281 280 280 280 280 279 279 279 279 279 279 279 279 279 279 280 280 280 280 280 280 280 280 280 280 280 280 280 280 280 281 281 281 282 282 282 282 282 281 281 281 281 281
302 300 300 300 300 299 299 299 298 298 297 296 296 295 295 294 294 293 292 292 292 291 290 290 289 289 288 287 287 286 286 286 285 285 284 283 283 282 282 281 281 281 281 280 280 280 280 279 279 279 278 278 279 279 279 279 279 279 279 280 280 279 279 279 280 280 280 280 280 280 280 280 280 281 280 281 282 282 281 281 281 281 281 280 280
302 301 300 299 299 299 299 299 298 298 297 296 296 295 295 294 294 293 292 292 291 291 290 290 289 288 288 287 287 286 286 285 285 284 284 284 283 282 282 281 281 281 281 280 280 280 280 279 279 279 278 278 278 279 279 279 279 279 279 279 279 279 279 279 279 280 280 280 280 280 280 280 281 280 279 280 281 281 281 281 280 280 280 280 280
302 301 300 299 299 299 299 298 298 297 297 296 296 295 295 294 294 293 293 292 291 290 290 289 289 288 287 287 286 286 285 285 284 284 284 284 283 283 282 282 281 281 280 280 280 280 279 279 279 278 278 278 278 278 278 279 279 279 279 279 279 279 279 279 279 279 279 280 280 279 280 280 280 279 279 280 280 280 280 280 280 280 280 280 279
302 300 299 299 299 298 298 298 298 297 297 296 295 295 295 294 294 293 293 292 291 290 290 289 289 288 287 287 286 285 285 285 285 285 284 284 284 283 282 282 281 280 280 280 280 280 279 279 279 278 278 278 278 278 278 278 278 278 278 278 279 279 279 279 279 279 279 279 279 279 279 279 279 278 279 279 279 279 279 279 279 279 279 279 279
301 301 299 298 298 298 298 298 298 297 296 296 295 295 294 294 294 293 293 292 291 290 290 289 289 288 287 287 286 286 285 285 285 285 285 284 284 284 283 282 281 280 280 280 279 279 279 279 278 278 278 278 278 278 278 278 278 278 278 278 278 278 278 278 278 278 278 278 278 279 278 278 278 278 278 278 278 278 278 278 278 279 279 279 279
301 300 300 298 298 298 298 298 297 297 296 295 295 295 294 294 294 293 292 292 291 290 290 289 289 288 288 287 286 286 286 285 285 285 285 284 284 284 284 283 282 281 280 280 279 279 279 278 278 278 278 277 277 277 278 278 278 278 277 277 278 278 278 278 278 278 278 278 278 278 278 278 278 278 278 278 278 277 277 277 278 278 278 279 279
301 299 298 298 298 298 298 298 297 296 295 295 295 294 294 294 293 293 292 292 291 290 290 289 289 288 288 287 286 286 286 285 285 285 284 284 284 284 284 283 282 281 280 280 279 279 279 278 278 278 278 277 277 277 277 277 277 277 277 277 277 278 278 278 278 278 278 278 278 278 278 278 278 278 278 278 277 277 277 277 277 277 278 278 278
301 299 298 298 298 298 297 297 296 295 295 295 294 294 293 293 293 292 292 291 291 290 290 289 289 288 288 287 287 286 285 285 285 284 284 284 284 284 283 283 282 281 280 280 279 279 278 278 278 278 277 277 277 277 277 277 277 277 277 277 277 277 277 277 277 277 277 277 277 277 278 278 278 278 278 277 277 277 277 277 277 277 277 277 278
301 300 299 297 297 297 297 296 296 295 295 294 294 293 293 293 292 292 292 291 291 291 290 289 289 288 288 287 287 286 286 285 285 284 284 284 283 283 283 283 282 282 281 280 279 279 278 278 277 277 277 277 277 277 277 277 277 277 277 277 277 277 277 277 277 277 277 277 277 277 277 277 277 278 278 278 278 277 277 277 277 277 277 277 277
300 299 299 298 296 296 296 296 295 294 294 294 294 293 293 292 292 292 291 291 291 291 290 290 289 289 288 287 287 286 286 285 285 284 284 284 283 283 283 283 282 282 281 280 280 279 278 277 277 277 277 277 277 277 276 276 276 276 276 276 276 276 277 277 276 276 276 276 276 276 276 276 277 277 277 277 277 277 277 277 277 277 277 277 277
299 299 299 297 296 296 296 295 294 294 294 294 294 293 293 292 292 292 291 291 291 290 290 290 289 289 288 287 287 286 286 285 285 284 284 284 283 283 283 282 282 282 282 281 280 279 278 278 277 277 277 277 276 276 276 276 276 276 276 276 276 276 276 276 276 276 276 276 276 276 276 276 276 276 277 276 277 277 277 276 276 277 276 276 276
299 299 298 296 295 295 295 294 294 294 294 294 294 293 293 293 292 292 292 291 291 291 290 290 289 289 288 288 287 287 286 286 285 284 284 284 283 283 283 282 282 282 282 281 281 280 278 278 277 277 277 276 276 276 276 276 276 276 276 276 276 276 276 276 276 275 275 275 275 275 275 275 275 276 276 276 276 276 276 276 276 276 276 276 275
298 299 297 295 295 295 294 294 294 293 293 293 293 293 293 293 292 292 292 291 291 291 290 290 289 289 288 288 287 287 287 286 285 285 284 284 283 283 282 282 282 281 281 281 281 280 278 278 277 277 276 276 276 276 276 276 276 275 275 275 275 276 275 275 275 275 275 275 275 275 275 275 275 275 275 275 276 276 276 276 276 276 276 275 275
298 297 296 294 294 294 293 293 293 292 292 293 292 292 292 291 291 291 291 291 291 291 290 290 289 289 289 288 287 287 287 286 286 285 285 284 284 283 282 282 282 281 281 281 280 279 278 278 277 277 276 276 276 276 276 275 275 275 275 275 275 275 275 275 274 274 274 274 274 274 274 274 274 275 275 275 275 275 275 275 275 275 275 275 275
296 295 294 293 293 293 293 292 292 292 292 292 291 291 290 290 290 290 290 290 290 290 290 290 290 289 289 288 288 287 287 287 286 286 285 285 284 283 283 282 281 281 281 280 280 279 278 278 277 277 276 276 276 275 275 275 275 275 275 275 275 275 274 274 274 274 274 274 274 274 274 274 274 274 274 274 274 275 275 275 275 275 275 275 274
295 295 294 292 292 293 292 291 291 291 291 290 290 290 289 289 289 289 289 289 289 289 290 290 290 290 289 289 288 288 287 287 286 286 285 285 284 283 283 282 281 281 280 280 279 279 278 277 277 276 276 276 275 275 275 275 275 275 274 274 274 274 274 274 274 274 274 274 274 274 274 274 274 273 274 274 274 274 274 274 274 274 274 274 274
294 294 293 292 292 292 291 291 290 290 290 289 289 289 289 288 288 288 289 289 289 288 289 290 290 289 289 289 288 288 287 287 286 286 285 285 284 283 283 282 281 281 280 280 279 278 277 277 276 276 276 275 275 275 275 274 274 274 274 274 274 274 274 274 274 274 274 274 274 274 274 274 273 273 273 273 273 274 274 274 274 274 274 274 274
294 294 293 291 291 291 290 290 290 289 289 288 288 288 288 288 288 288 288 288 288 288 288 289 288 288 288 288 288 287 287 286 286 286 285 285 285 284 283 282 281 281 280 279 279 278 277 276 276 276 275 275 275 275 274 274 274 274 274 274 273 273 273 273 273 273 273 273 273 273 273 274 273 273 273 273 273 273 273 273 273 273 273 274 274
294 294 292 290 290 290 290 290 289 289 288 288 287 287 287 287 286 286 286 286 286 286 287 287 287 287 287 287 287 287 286 286 286 286 285 285 285 284 282 281 281 280 280 279 279 278 277 276 275 275 275 275 275 274 274 274 274 273 273 273 273 273 273 273 273 273 273 273 273 273 273 273 273 273 273 273 273 273 273 273 273 273 273 273 273
294 293 291 290 290 290 289 289 289 288 288 287 286 286 286 285 284 284 285 285 285 285 285 286 286 286 286 286 286 286 286 286 286 285 285 285 284 283 282 281 280 280 279 279 278 277 276 275 275 275 275 274 274 274 274 274 273 273 273 273 273 273 273 272 272 272 272 273 273 273 273 273 273 273 273 273 273 273 273 273 273 273 273 272 273
294 292 290 290 289 289 288 288 288 287 287 286 285 285 284 284 283 283 283 283 283 284 284 285 285 285 285 285 285 285 285 285 285 284 284 284 283 282 281 280 280 279 279 278 277 276 276 275 275 274 274 274 274 274 273 273 273 273 273 273 272 272 272 272 272 272 272 273 273 273 273 273 273 273 273 273 273 273 273 273 273 272 272 272 273
293 291 290 289 288 288 288 287 287 286 285 284 284 283 283 283 282 282 282 281 282 282 283 283 283 283 283 283 283 284 283 283 283 283 283 283 282 281 280 279 278 278 278 277 277 276 275 275 274 274 274 274 274 273 273 273 273 273 272 272 272 272 272 272 272 272 272 272 273 273 273 273 273 273 273 272 272 272 272 272 272 272 272 273 273
291 289 289 288 287 287 287 287 286 285 284 283 282 282 282 282 281 281 280 280 281 281 281 281 281 281 281 281 281 281 282 282 282 282 282 281 280 280 278 278 277 277 277 277 276 275 275 274 274 274 274 273 273 273 273 273 272 272 272 272 272 272 272 272 271 272 272 272 272 272 273 273 273 272 272 272 272 272 272 272 272 272 272 273 273
290 288 288 287 287 287 286 285 285 284 283 282 281 281 280 280 280 279 279 279 279 279 279 279 279 279 279 280 280 280 281 281 281 281 280 279 279 278 277 277 276 276 276 276 275 275 274 274 274 273 273 273 273 273 272 272 272 272 272 271 271 271 271 271 271 271 271 271 272 272 272 272 273 272 272 272 272 272 272 272 272 272 272 272 272
288 287 287 286 286 286 285 284 283 282 281 280 280 280 279 279 279 278 278 278 277 277 277 277 278 278 278 279 279 279 279 279 279 279 279 279 278 278 277 276 276 275 275 275 275 274 274 274 273 273 273 273 273 272 272 272 272 271 271 271 271 271 271 271 271 271 271 271 271 271 271 272 272 272 272 272 272 272 272 272 272 272 272 272 272
287 286 286 286 285 284 283 282 281 280 280 279 279 279 278 277 277 277 277 276 276 276 276 276 276 277 278 278 277 277 277 277 278 278 278 279 278 277 276 276 275 275 275 274 274 274 273 273 273 273 273 273 272 272 272 271 271 271 271 271 271 270 270 270 270 270 270 270 270 270 271 271 272 272 272 272 272 272 272 272 272 272 272 272 272
286 286 286 285 284 282 281 280 280 279 278 278 277 277 276 276 276 276 276 275 274 274 275 275 276 276 277 277 276 275 275 275 275 276 277 277 277 276 276 275 274 274 274 274 273 273 273 273 273 272 272 272 272 272 271 271 271 271 270 270 270 270 270 270 270 269 269 269 270 270 270 271 271 272 272 272 272 272 272 272 272 271 271 271 271
285 285 284 283 281 280 279 279 279 278 277 276 276 275 275 275 275 275 274 273 273 274 274 275 276 276 276 274 273 272 272 272 272 273 273 273 274 275 275 274 274 273 273 273 273 273 273 272 272 272 272 272 271 271 271 271 272 272 271 270 270 270 270 269 269 269 269 269 269 269 270 270 270 271 271 272 272 272 272 272 272 272 271 271 271
284 283 282 281 280 279 278 278 278 277 276 275 274 274 275 275 274 272 272 272 273 273 274 274 275 274 272 271 271 270 270 270 270 270 271 271 272 273 273 273 273 273 273 273 273 272 272 272 272 272 271 271 271 271 271 272 272 273 272 271 269 269 269 269 268 268 268 269 269 269 269 269 269 269 270 270 271 272 272 273 273 273 272 272 272
282 281 280 279 278 277 277 277 276 275 274 273 273 274 274 272 271 271 271 271 272 272 272 272 271 271 270 269 269 268 267 267 268 269 270 270 270 271 272 272 273 273 272 272 272 272 272 272 271 271 271 271 271 270 271 272 272 273 273 272 270 269 269 268 268 268 268 268 268 269 269 269 269 269 269 270 270 270 271 273 273 273 273 273 273
280 280 279 278 277 276 276 275 275 274 273 272 273 273 271 270 269 270 270 271 271 271 269 269 268 268 268 268 267 266 266 266 268 269 270 269 268 270 271 272 272 272 272 272 272 272 271 271 271 271 271 270 270 270 271 272 272 272 273 272 270 269 268 268 268 268 268 268 268 268 268 269 269 269 269 269 269 269 270 272 273 273 274 274 274
279 278 277 276 275 275 274 274 274 272 272 272 272 270 269 268 269 269 270 270 269 268 267 267 266 266 265 266 265 265 265 266 267 268 268 267 268 269 270 271 270 271 272 272 272 271 271 271 270 270 270 270 270 270 270 271 272 272 272 272 271 269 268 268 268 268 268 268 268 268 268 268 269 269 269 269 270 270 270 271 272 273 274 274 274
277 276 276 275 274 273 273 273 272 271 271 271 270 268 268 268 268 269 269 268 267 266 266 265 265 264 263 264 264 264 264 264 265 265 266 266 267 269 270 270 270 270 271 271 271 271 270 270 270 270 269 269 269 269 270 271 271 272 272 272 272 270 269 268 268 268 268 268 268 268 268 268 269 270 270 271 271 271 271 271 272 272 273 274 274
276 275 275 274 273 272 272 272 271 270 270 269 268 267 267 267 268 268 267 266 265 265 264 264 263 263 262 262 263 263 263 263 263 264 265 265 266 267 268 268 269 270 271 271 271 270 270 270 269 269 269 268 268 268 269 270 271 271 272 271 271 271 270 269 268 268 268 268 268 268 269 268 269 269 271 272 273 272 272 272 272 272 273 274 274
274 274 273 273 272 271 271 270 270 269 268 267 267 266 266 267 267 266 265 264 264 264 263 263 262 262 261 261 261 262 262 262 263 263 264 264 265 266 266 267 269 271 271 271 270 270 269 269 269 268 268 268 268 267 268 269 270 271 271 271 270 270 269 269 269 269 269 269 269 269 269 269 269 269 270 272 274 274 273 272 273 273 273 274 274
273 273 272 271 271 270 270 269 268 267 267 266 266 265 266 266 266 264 263 263 263 262 262 261 261 261 261 261 261 261 261 262 262 262 263 263 264 265 266 268 270 271 270 270 270 269 269 268 268 268 267 267 267 267 267 268 269 270 270 270 270 269 269 269 269 269 269 269 270 270 270 270 270 270 271 273 274 275 274 274 274 274 274 274 273
272 271 271 270 270 269 269 268 267 266 266 265 265 265 265 265 264 263 262 262 262 261 261 260 260 260 260 260 260 260 261 261 261 262 262 263 264 265 266 268 269 270 270 269 269 269 268 268 267 267 267 267 266 266 266 267 268 269 270 270 270 269 269 269 269 269 269 270 270 270 270 271 272 272 273 273 275 276 276 275 274 274 274 274 273
271 270 270 269 269 268 268 267 266 266 265 264 264 264 264 264 263 262 261 261 261 260 260 260 259 259 259 260 260 260 260 261 261 261 262 263 264 265 266 268 269 269 269 269 268 268 268 267 267 266 266 266 266 266 265 266 267 268 269 269 270 269 269 269 269 269 269 269 270 270 270 270 271 273 273 274 275 276 276 276 275 275 274 274 274
270 269 269 268 268 268 267 266 266 264 263 263 263 263 264 263 262 261 260 260 260 259 259 259 259 259 259 259 259 260 260 260 261 261 262 263 264 265 267 268 268 269 268 268 268 268 267 266 266 266 266 265 265 265 265 265 266 267 268 269 269 269 269 268 269 269 269 270 270 271 271 271 271 273 274 275 275 276 277 276 276 276 276 275 275
269 268 268 268 267 267 266 266 265 264 262 262 262 263 263 262 261 260 260 259 259 259 258 258 258 258 259 259 259 259 260 260 261 262 263 264 265 266 267 268 268 268 268 267 267 267 266 266 265 265 265 265 265 264 264 264 265 266 267 268 269 270 269 269 269 269 269 270 271 271 272 272 273 273 274 275 276 276 277 277 277 277 276 276 276
268 268 267 267 266 266 265 265 264 263 262 262 262 262 262 261 260 260 259 259 258 258 258 258 258 258 258 258 259 259 260 261 262 262 263 264 265 267 267 267 267 267 267 266 266 266 265 265 265 265 264 264 264 264 264 264 265 266 267 268 269 270 270 270 269 269 269 270 271 272 272 273 274 275 275 276 276 276 277 277 277 277 277 277 277
267 267 266 266 266 265 264 264 263 262 261 261 261 261 261 260 259 259 258 258 258 258 258 257 257 258 258 258 259 259 260 261 262 263 264 265 266 267 267 267 267 266 266 266 266 265 265 265 264 264 264 264 265 265 265 265 265 266 267 268 269 270 271 271 270 270 270 271 272 273 273 274 275 275 276 276 276 276 277 277 277 277 276 276 276
267 266 266 265 265 264 264 263 262 262 261 261 261 261 260 259 259 258 258 258 257 257 257 257 257 257 258 258 259 260 261 262 262 263 264 265 266 267 266 266 266 266 266 266 265 265 265 264 264 264 264 265 265 265 266 266 266 267 267 268 269 270 271 272 272 271 271 272 273 274 274 275 275 275 275 275 275 275 276 276 276 276 276 276 276
266 265 265 265 264 263 263 262 261 261 260 260 260 260 259 259 258 258 258 257 257 257 257 257 257 257 258 258 259 260 261 262 262 263 264 266 266 266 266 266 266 266 265 265 265 265 265 265 265 265 265 265 265 266 267 267 267 268 268 268 269 270 271 272 272 272 273 273 273 274 274 274 275 275 275 275 275 275 275 275 275 275 275 275 275
265 265 265 264 263 262 262 261 260 260 260 260 260 259 259 258 258 258 257 257 257 256 256 257 257 257 258 259 259 260 261 262 262 263 265 265 265 265 265 265 265 265 265 265 265 265 264 264 265 265 265 266 266 267 268 268 268 269 269 269 270 270 271 272 272 273 273 273 273 274 274 274 274 274 274 273 273 273 273 273 273 273 273 273 273
264 264 264 263 262 261 261 260 259 259 259 259 259 259 258 258 257 257 257 257 256 256 256 256 257 257 258 259 260 261 261 261 262 263 264 264 264 264 265 265 265 265 265 265 265 265 264 264 264 265 265 266 267 268 269 270 270 270 270 270 270 270 271 271 272 273 273 273 273 273 272 272 272 272 272 272 271 271 271 271 271 271 271 271 271
264 263 263 263 262 261 260 259 259 259 259 259 258 258 258 257 257 257 257 256 256 256 256 256 257 257 258 259 260 261 261 261 262 263 263 263 263 264 264 265 266 266 266 266 266 266 266 265 265 265 265 266 267 269 270 271 271 271 271 271 271 271 271 271 272 272 272 272 272 271 271 271 271 271 271 271 270 270 270 270 270 270 270 270 270
263 263 262 262 261 260 259 259 258 258 259 258 258 257 257 257 257 257 256 256 256 256 256 256 257 257 258 260 260 261 261 261 262 262 262 262 262 263 263 264 265 266 267 267 267 268 268 267 267 266 266 267 267 269 270 271 271 271 272 272 272 272 272 272 272 272 272 271 271 271 271 270 270 270 270 269 269 269 269 268 268 268 268 269 269
Wind_Speed
11 14 11 9 6 5 5 6 6 6 8 7 7 8 9 10 12 13 14 13 14 16 19 20 20 22 23 24 25 26 26 26 27 28 28 28 28 27 27 26 26 25 24 23 23 23 23 22 21 20 20 20 21 21 20 18 18 18 17 17 17 18 19 19 17 17 18 17 17 18 20 21 20 20 21 19 17 16 14 13 13 13 14 15 17
11 12 11 11 8 6 6 5 4 4 7 7 6 8 9 10 12 13 14 14 14 15 18 20 21 22 22 24 24 25 24 24 25 27 27 27 27 27 27 27 27 27 26 25 24 24 24 24 23 23 22 22 23 22 21 20 19 19 19 19 18 17 19 19 17 16 15 12 10 10 14 17 15 14 17 16 13 10 10 10 11 12 14 15 15
8 9 10 12 11 9 8 7 7 6 6 5 7 9 10 12 13 14 15 15 16 16 17 19 21 22 22 23 23 23 22 22 22 23 22 23 24 25 26 27 28 28 28 27 26 26 26 26 25 24 23 24 24 23 22 21 21 20 20 20 19 18 19 20 18 17 15 13 9 6 5 7 7 8 9 7 7 6 8 10 11 12 13 14 15
7 7 8 10 10 10 8 7 7 6 5 6 9 11 11 13 14 15 16 16 16 17 17 18 20 21 21 22 23 24 24 24 24 23 22 22 23 24 26 28 29 30 29 28 28 28 28 28 27 25 25 24 25 25 24 23 23 22 22 22 20 19 19 20 19 19 18 14 6 3 2 2 3 3 6 5 7 7 9 9 10 11 12 14 15
7 5 6 8 9 8 8 7 7 6 6 6 9 10 11 13 15 16 17 17 16 16 17 17 18 19 21 21 22 23 24 25 25 26 26 26 27 28 29 30 31 31 31 30 30 29 29 29 28 27 26 25 25 26 26 25 24 23 23 23 23 21 20 19 19 19 19 18 12 5 2 1 3 2 6 7 9 7 7 8 9 11 12 14 15
6 5 6 7 8 8 8 8 8 7 7 7 9 11 13 15 17 19 18 16 15 15 16 16 16 18 19 20 20 20 21 21 22 24 26 27 28 29 31 31 32 32 32 32 31 31 31 30 29 28 28 27 27 27 27 26 26 25 24 24 25 24 22 19 20 20 19 19 19 16 11 8 5 4 3 3 6 8 9 9 9 10 11 13 15
5 6 6 7 8 8 8 9 10 8 9 10 11 13 15 17 19 21 20 18 16 16 16 17 17 17 18 19 20 21 22 23 24 24 25 26 27 27 28 29 31 32 33 32 32 32 31 31 30 29 29 29 28 27 28 28 27 26 25 25 25 25 24 22 22 22 19 19 21 21 21 19 14 8 3 2 4 7 8 8 10 11 12 14 15
5 5 5 6 8 8 8 10 11 10 10 12 13 15 18 19 21 22 22 19 17 17 17 18 18 18 18 19 20 22 23 25 26 26 26 26 26 26 27 27 28 30 32 33 33 33 32 31 30 30 30 30 29 29 29 29 28 27 26 26 26 26 26 26 25 22 19 19 20 20 22 22 20 16 13 8 3 3 6 9 11 12 12 13 14
6 5 6 8 10 11 11 11 11 11 12 14 15 18 20 22 22 23 22 20 18 18 19 19 19 19 19 20 21 22 23 25 25 26 26 26 26 27 27 27 27 27 29 32 32 33 33 32 31 31 31 31 30 31 30 29 29 28 27 27 28 28 28 27 26 24 23 21 19 18 19 20 20 19 19 15 9 5 6 5 6 8 10 13 13
6 7 8 10 11 12 11 11 10 11 13 17 17 20 23 24 24 23 22 20 20 20 20 21 21 20 21 22 23 23 24 24 25 25 25 26 26 27 27 27 27 27 29 31 32 33 33 33 32 32 32 31 31 31 31 30 29 30 29 28 28 29 29 28 26 25 24 23 20 18 17 16 14 12 14 15 11 8 7 5 6 7 6 9 10
6 7 9 11 12 13 13 10 9 11 16 19 19 21 23 22 23 23 22 21 21 21 21 22 22 22 22 23 24 25 25 25 25 25 25 25 26 27 28 27 28 29 30 30 32 33 33 33 33 33 32 31 31 31 31 31 30 30 30 29 29 29 29 28 27 26 24 24 23 21 20 17 13 9 12 16 11 7 6 5 7 7 6 7 10
6 6 8 10 12 14 13 10 11 15 19 19 19 21 20 19 20 21 21 21 21 21 21 22 22 22 22 23 25 27 27 26 25 25 25 25 26 27 27 27 28 29 30 30 32 32 33 33 33 33 32 31 32 31 31 30 30 30 30 30 30 29 29 29 27 26 25 25 25 24 23 20 18 16 15 16 15 12 9 4 4 6 5 7 10
7 6 6 7 9 11 10 10 14 17 18 18 19 20 20 20 20 19 20 23 22 20 20 20 20 21 22 23 24 26 27 27 27 26 27 26 26 27 27 27 28 29 29 30 31 32 32 34 34 33 33 33 33 32 31 30 29 29 29 30 30 30 30 29 29 28 27 27 26 25 24 22 21 20 17 16 15 15 12 6 5 6 5 6 9
6 5 6 6 8 12 11 14 16 17 17 17 19 21 22 23 22 21 23 23 21 21 21 20 20 21 22 23 24 25 26 27 27 28 28 28 28 28 28 28 28 29 30 31 31 31 32 34 34 34 34 33 33 32 31 30 29 29 29 29 30 31 30 29 29 28 27 27 26 25 25 23 23 21 19 18 17 16 13 8 5 6 6 6 7
5 5 6 8 12 16 16 16 17 18 19 20 21 24 24 25 25 25 26 25 25 26 25 22 21 22 22 23 24 25 25 26 27 27 27 28 29 29 29 29 29 29 31 32 31 30 31 32 34 34 34 33 33 32 31 30 29 29 29 28 29 29 29 29 29 28 28 27 26 26 25 24 23 22 20 19 18 17 15 12 8 4 4 5 4
7 6 7 10 15 18 18 19 20 21 23 23 24 26 27 27 28 28 29 30 29 29 26 24 25 26 25 25 25 24 24 25 27 27 26 27 28 28 29 30 30 29 30 31 31 30 30 31 33 34 33 33 33 32 31 30 30 29 28 28 28 28 28 28 28 28 28 28 27 26 25 25 24 22 20 19 19 17 16 15 12 8 4 3 3
7 7 8 11 15 18 19 21 22 24 25 26 27 28 30 30 31 31 32 32 31 30 27 26 27 27 27 27 24 22 23 26 27 27 26 25 25 26 28 30 30 29 29 30 30 31 31 31 32 33 33 32 32 32 31 30 29 29 29 28 28 27 26 27 27 27 27 28 27 27 26 26 25 23 21 20 19 18 17 15 14 12 8 4 3
8 8 9 13 16 18 20 21 23 26 28 28 30 32 33 33 32 32 32 33 33 33 31 29 26 27 30 29 26 25 26 28 30 29 26 25 24 25 26 28 29 28 28 29 30 32 32 31 32 32 32 32 32 31 31 30 29 28 28 28 28 27 26 26 26 26 26 26 27 27 27 26 26 24 23 21 20 19 18 17 15 14 12 8 5
8 7 8 11 15 17 20 23 26 29 29 30 33 35 35 33 33 33 34 34 35 37 36 32 29 30 31 31 30 30 30 30 30 29 27 26 26 25 24 26 27 28 28 29 30 32 32 31 31 32 32 31 31 31 30 29 28 28 27 27 27 26 26 26 25 26 25 25 25 26 26 27 26 24 23 23 21 19 19 18 16 15 14 13 11
8 7 7 10 15 18 21 25 28 29 29 31 34 35 34 34 35 35 34 34 36 38 36 32 30 31 31 32 34 32 30 29 30 29 28 28 28 26 24 24 26 28 28 28 30 32 32 32 31 31 32 32 31 30 30 29 28 28 27 26 26 26 26 26 26 25 25 24 24 25 25 26 25 24 23 23 22 21 19 18 17 16 15 15 16
7 6 7 11 16 19 23 26 27 28 30 32 34 34 33 34 36 36 36 36 37 38 36 34 33 33 33 34 34 31 30 32 33 32 32 31 31 29 24 23 24 26 27 27 30 32 32 32 31 31 32 32 31 30 30 29 28 27 27 26 26 25 26 26 25 25 25 25 25 25 25 25 24 23 23 22 22 22 20 19 17 17 17 16 16
6 7 8 11 16 19 23 26 27 28 30 32 33 33 33 35 36 37 37 37 37 38 38 37 35 35 35 34 33 33 34 35 35 35 35 35 34 29 22 20 22 25 26 27 29 32 32 31 31 31 31 31 31 30 30 28 28 27 26 26 25 25 25 26 25 25 26 26 26 26 26 25 24 23 23 22 21 21 21 20 19 18 18 17 16
7 7 9 13 17 20 23 25 25 27 30 32 33 33 34 35 36 38 37 37 37 38 38 38 37 36 36 35 34 35 36 36 36 35 35 35 30 22 18 18 22 26 26 26 29 31 31 30 30 30 30 30 30 30 29 29 28 28 27 26 25 25 25 25 25 25 25 26 26 26 26 25 24 23 23 22 21 20 20 20 20 20 18 18 18
7 8 11 16 19 21 22 22 24 27 30 31 33 34 35 35 36 36 36 37 38 38 37 37 36 36 36 36 36 36 36 36 35 35 34 30 22 16 17 20 23 25 25 26 28 29 30 30 29 29 29 29 29 29 29 29 28 28 27 26 25 25 25 25 25 25 25 25 25 25 25 25 24 23 23 23 23 22 20 19 19 19 19 19 19
8 10 12 15 18 19 20 22 25 28 30 32 34 35 35 35 34 34 36 39 39 37 36 36 36 37 38 38 37 36 35 35 36 35 30 22 18 18 21 23 23 24 24 25 27 28 29 29 29 28 28 29 29 29 28 29 28 27 26 26 25 25 25 25 25 25 25 25 25 24 24 24 24 24 23 23 24 24 23 20 19 18 18 19 17
11 12 12 14 15 17 20 24 27 29 30 32 34 35 35 34 33 33 36 37 37 36 36 36 37 38 37 37 37 36 36 37 36 31 24 22 23 23 23 22 22 23 24 25 27 28 29 28 28 28 27 28 29 29 28 28 27 27 26 24 24 25 25 25 25 25 25 25 24 24 23 23 24 25 25 24 23 23 23 23 21 19 18 18 17
11 12 13 14 14 16 21 26 29 30 30 32 33 33 34 34 34 35 35 34 35 37 37 37 37 37 36 36 35 34 34 35 32 28 27 29 28 24 22 22 23 24 25 27 28 29 29 28 27 27 27 27 27 27 28 27 26 26 25 24 24 24 24 24 24 25 25 24 24 24 23 23 23 25 26 24 22 22 22 22 22 20 18 17 16
12 13 15 14 12 16 22 27 30 30 31 33 33 32 32 32 34 35 34 34 37 37 37 37 35 34 34 33 32 33 34 34 33 33 35 34 30 25 23 22 24 25 26 28 29 30 29 28 27 27 27 27 26 26 26 26 26 26 25 25 24 24 24 24 24 24 24 24 24 24 23 24 24 24 25 25 24 23 22 22 22 20 19 18 16
14 15 15 13 13 17 24 29 31 31 32 34 33 32 33 34 34 33 32 35 38 38 37 35 34 34 32 31 33 36 35 34 37 38 38 36 32 26 21 21 24 25 26 27 29 29 28 27 26 26 26 26 25 25 26 26 26 26 25 25 25 25 24 23 23 22 23 23 24 24 23 23 23 23 23 24 24 24 23 22 22 21 20 19 17
15 16 14 13 16 22 26 29 29 30 31 32 33 33 34 34 33 32 34 37 38 37 35 34 35 33 30 30 33 35 35 37 37 37 38 37 33 27 24 24 24 24 25 27 28 28 27 26 25 25 25 25 25 26 26 26 25 25 25 25 25 25 24 22 21 20 21 21 23 24 25 22 20 20 21 22 22 23 22 22 23 23 23 21 19
16 15 14 15 19 24 27 27 28 29 30 31 33 35 34 32 32 34 37 38 37 35 34 34 33 30 30 33 35 38 41 42 40 40 43 43 38 32 30 28 26 26 26 26 26 27 27 26 25 25 25 24 25 26 25 25 24 24 25 27 26 24 23 22 21 20 19 18 19 23 25 24 21 20 22 22 21 22 22 22 21 22 23 24 22
16 16 17 17 20 24 27 27 28 30 31 33 35 35 33 32 35 38 39 37 35 33 33 33 32 33 39 42 41 43 46 46 46 47 47 45 41 38 35 33 30 28 27 26 26 27 27 27 26 25 25 24 25 26 25 24 24 24 25 27 28 26 23 22 21 20 19 18 17 19 21 24 24 24 23 24 24 23 23 23 22 22 22 22 23
16 17 18 19 22 26 28 28 29 31 33 35 35 33 33 35 39 40 39 37 34 33 34 36 37 40 45 44 42 44 47 47 46 44 40 39 41 41 38 34 31 30 29 28 26 26 27 26 26 26 25 25 25 25 24 23 23 24 24 26 28 29 27 25 24 22 21 20 19 18 18 21 23 23 23 25 27 26 24 24 24 24 23 23 22
16 17 19 22 26 28 30 31 30 31 34 35 33 32 34 37 38 38 36 34 33 35 39 42 42 42 42 41 41 42 43 44 43 38 36 39 41 40 37 32 32 33 30 27 26 25 26 26 26 26 25 25 26 25 23 22 23 24 24 24 26 29 30 29 27 26 24 23 21 20 19 19 19 21 23 24 26 26 25 24 25 26 26 25 25
15 17 21 26 28 29 32 32 31 33 36 34 33 35 37 37 36 34 32 32 34 37 40 39 39 40 40 40 41 40 40 41 41 39 39 40 40 39 36 32 33 34 31 27 26 25 25 25 25 25 24 25 26 23 21 22 23 23 24 22 22 26 29 29 28 26 26 25 23 22 21 19 19 21 23 24 24 23 23 23 24 25 26 25 26
18 20 23 27 29 30 31 31 33 35 36 34 35 37 37 36 33 30 31 34 36 38 37 36 36 37 39 39 39 39 40 41 40 40 39 38 38 37 34 31 34 35 30 26 24 23 24 24 24 24 24 25 25 22 20 22 23 22 22 22 20 20 23 27 27 26 26 26 24 23 22 21 21 21 21 22 23 22 22 23 23 24 25 25 26
25 26 25 25 28 30 29 29 31 32 33 34 36 36 35 34 31 30 33 37 36 35 35 36 36 36 38 39 38 39 41 41 40 39 38 37 37 36 35 36 37 33 26 22 22 21 22 22 22 23 23 23 24 22 20 21 22 20 20 22 21 19 18 20 23 24 25 26 25 24 23 22 23 23 21 21 22 23 23 23 22 23 23 23 25
26 28 26 25 26 28 29 29 30 30 31 33 35 35 34 32 30 32 36 37 34 33 35 36 37 37 39 40 41 42 42 41 40 38 38 39 38 37 38 39 35 28 22 21 20 19 19 19 20 21 22 22 23 23 20 20 21 20 20 21 21 20 19 18 18 19 22 24 25 24 23 23 24 24 23 22 22 25 26 24 22 22 22 22 24
24 27 28 27 27 27 28 29 29 31 33 34 34 33 32 29 30 33 36 34 33 34 36 37 38 40 41 42 44 43 41 41 41 40 40 40 39 38 38 36 30 25 21 20 18 16 16 16 17 18 20 20 22 22 20 19 20 20 20 21 20 19 18 18 18 18 19 20 21 20 20 23 24 23 22 22 23 26 29 27 24 23 23 23 23
27 29 29 29 29 28 28 30 31 33 35 35 34 32 29 28 31 34 34 33 33 36 38 39 40 42 43 43 43 42 41 41 41 41 41 39 38 38 36 32 29 25 19 16 14 14 14 14 14 16 17 18 19 21 20 18 19 20 20 20 20 19 18 17 17 17 18 18 19 19 20 22 23 23 22 23 23 26 30 30 27 26 24 23 22
27 30 31 30 29 28 29 29 30 34 37 36 34 32 29 29 32 34 33 34 36 39 41 41 42 43 43 44 43 42 43 42 41 40 40 38 39 38 33 29 28 22 15 13 12 12 12 12 12 13 15 16 17 19 19 18 18 19 20 20 21 20 19 17 16 17 18 18 19 21 23 24 24 24 24 24 24 26 28 30 31 29 25 21 20
28 29 30 31 30 29 30 29 29 33 36 34 33 32 31 31 33 34 35 37 39 41 41 42 43 43 43 44 44 43 43 41 40 39 38 38 39 36 30 27 25 18 13 11 11 10 9 10 11 12 14 15 16 18 19 19 19 19 20 20 21 20 19 18 17 17 18 19 19 21 23 24 23 24 26 26 26 27 26 28 32 31 25 21 20
29 29 30 30 29 29 30 30 30 34 35 33 32 32 31 31 33 36 39 40 41 41 42 43 43 42 43 44 43 43 43 40 38 38 36 37 38 32 26 25 22 16 12 11 10 9 8 8 10 12 14 15 17 17 18 19 20 20 19 20 21 20 19 19 20 19 19 21 21 21 21 21 20 22 23 25 28 29 26 26 29 29 25 22 22
28 30 31 29 29 30 31 30 30 33 34 33 32 32 32 33 36 39 42 42 42 43 44 44 43 42 43 43 42 42 41 39 37 37 35 36 35 28 23 23 20 15 12 11 9 9 9 9 10 13 15 16 17 18 18 18 18 18 18 18 19 20 19 20 22 22 21 21 20 20 20 20 20 22 23 25 28 29 26 23 24 24 22 21 20
29 31 31 29 29 31 32 31 32 33 33 32 31 32 33 36 39 41 42 43 44 44 44 43 44 43 43 43 42 40 38 37 37 36 34 34 31 24 21 21 18 13 12 11 10 9 10 10 11 13 14 15 16 17 17 15 15 16 17 17 18 19 20 21 22 23 23 21 19 18 17 15 16 17 17 17 19 20 18 17 16 15 14 14 14
29 31 31 30 30 30 31 33 33 33 33 32 32 31 33 37 40 42 43 43 44 44 43 43 44 43 42 41 40 38 36 36 38 37 34 32 28 22 20 21 17 13 12 11 10 9 9 10 11 12 13 14 14 14 15 14 12 12 14 15 16 17 18 19 20 22 22 20 17 15 13 10 9 9 9 8 8 8 8 9 9 9 10 10 11
29 30 30 30 29 29 31 33 34 34 34 33 33 33 34 37 40 42 42 42 43 42 43 43 43 42 40 39 37 36 35 35 37 36 32 29 26 22 21 21 17 14 12 11 10 10 10 10 10 11 12 14 13 12 12 12 11 10 11 12 14 15 16 17 17 18 19 20 17 13 10 9 9 8 7 7 7 6 7 8 8 8 9 10 10
29 29 29 28 28 29 31 32 34 35 35 35 35 35 37 39 40 41 41 41 42 42 42 42 42 39 38 37 35 34 34 35 35 34 30 27 27 26 24 21 18 15 13 12 11 11 11 11 11 11 12 12 12 11 10 10 9 8 8 9 11 12 13 14 12 11 13 16 13 9 9 9 10 10 8 8 8 8 8 8 8 8 8 8 8
29 28 27 27 27 30 32 32 33 34 35 35 36 37 39 39 39 40 41 41 42 42 41 40 39 37 36 36 34 33 34 34 33 32 31 30 28 27 25 23 21 17 15 15 14 13 13 12 12 13 12 11 10 9 7 6 6 5 4 5 7 8 9 9 7 7 10 11 11 12 11 9 8 8 7 7 6 7 7 6 6 6 5 5 6
27 27 27 26 27 29 31 32 33 34 34 35 37 39 40 39 39 40 40 41 42 42 39 38 37 36 35 34 32 33 34 33 31 30 32 31 30 27 25 24 23 19 15 15 15 14 14 12 11 12 12 10 11 12 8 4 3 3 3 4 5 6 7 7 6 7 10 9 9 10 8 7 6 5 5 5 6 7 7 6 5 4 4 5 6
27 27 27 28 29 30 30 31 33 33 33 35 38 40 40 40 40 40 40 42 43 40 37 36 36 35 34 33 32 32 32 32 30 29 30 29 29 29 28 25 24 21 16 14 14 13 12 11 11 11 10 10 11 13 10 5 3 4 4 5 6 8 9 9 9 9 10 9 9 9 8 7 6 5 5 6 6 7 7 5 4 4 5 6 7
Wind_Direction
92 99 94 75 66 60 50 39 45 47 27 6 353 348 338 328 319 315 314 308 297 283 274 269 265 264 265 265 267 269 269 268 267 267 266 264 263 260 258 256 254 253 254 256 255 253 253 253 250 247 242 240 241 241 240 240 242 246 249 252 252 253 255 257 261 267 272 277 281 283 285 284 281 278 274 269 267 273 268 260 270 281 282 288 292
77 75 61 48 43 56 49 28 49 50 21 7 356 350 342 338 330 323 321 313 304 293 281 273 269 269 270 271 274 275 274 272 270 269 268 265 262 260 257 255 253 253 253 254 252 251 251 250 248 246 242 240 239 240 240 238 238 240 245 248 248 250 255 257 257 258 260 265 281 293 292 289 284 281 276 261 251 255 253 256 267 272 278 286 288
66 57 44 38 35 45 43 33 35 19 15 22 7 353 343 342 339 331 328 318 307 300 290 282 278 275 274 276 279 278 277 277 277 276 272 265 261 260 258 255 254 254 254 253 251 250 250 249 248 247 243 239 238 239 238 235 234 235 239 243 245 249 255 256 252 248 249 260 280 287 285 303 301 296 291 251 216 224 247 268 270 267 275 280 283
61 49 38 34 31 33 33 37 31 15 31 33 7 356 348 345 341 335 332 324 313 304 297 292 288 281 276 278 280 278 277 277 276 275 273 268 265 261 258 257 256 256 255 254 252 252 251 249 247 245 242 239 237 237 236 233 232 232 233 236 240 244 249 251 248 245 245 246 255 270 282 317 275 311 351 296 263 261 264 276 270 264 273 277 283
60 45 33 29 29 25 23 30 21 16 37 26 3 353 345 343 339 334 332 328 321 311 303 299 295 287 281 281 282 279 277 277 275 275 274 271 268 264 262 260 258 256 256 255 254 254 252 249 247 244 242 239 236 236 237 235 232 231 231 232 234 237 242 248 247 244 243 238 231 235 265 271 241 339 3 302 284 283 272 277 275 270 274 276 283
61 47 35 24 22 14 17 22 11 19 38 21 4 354 346 342 337 333 330 329 329 322 313 307 301 295 288 284 284 282 281 281 280 282 283 280 275 271 266 263 259 257 255 254 254 253 251 248 246 244 242 240 237 236 237 237 234 230 229 230 231 233 236 242 246 243 241 240 238 237 239 241 261 333 6 293 294 290 274 274 278 277 277 277 282
54 41 29 20 18 10 16 16 8 25 38 21 6 358 351 345 340 335 328 325 328 330 325 316 307 301 294 287 285 284 283 284 285 287 288 287 285 279 271 265 261 257 254 253 252 251 248 245 245 244 243 242 239 237 237 236 236 232 229 229 230 231 232 235 240 242 241 242 241 241 242 245 252 260 245 247 301 286 271 274 281 281 278 277 281
46 34 18 13 13 8 14 12 9 27 32 18 5 356 348 341 339 338 333 326 326 328 326 318 307 299 296 292 289 287 284 285 288 288 287 286 285 282 277 269 261 256 254 252 250 248 245 242 241 241 242 242 240 239 238 237 237 235 231 229 230 230 229 231 235 237 236 238 240 239 239 241 242 241 240 242 253 281 281 277 278 281 278 277 282
47 26 4 7 9 6 10 8 11 31 30 12 358 350 346 340 338 339 338 335 332 330 327 321 311 298 291 288 287 289 289 289 290 289 288 286 283 282 279 271 262 255 252 251 249 246 243 240 240 240 241 241 240 240 239 238 236 236 233 229 229 229 228 230 233 233 232 233 236 237 234 231 231 233 236 235 229 246 271 273 275 285 282 278 279
43 17 1 3 7 2 0 6 18 34 22 3 353 351 350 346 343 341 339 336 332 329 326 323 317 303 288 281 281 285 289 291 291 289 289 288 284 282 280 273 263 256 252 249 247 244 242 240 239 240 240 240 239 239 239 239 237 236 234 231 229 229 229 229 230 231 231 231 232 235 234 225 218 223 225 225 228 239 249 264 266 266 274 277 280
33 9 355 357 3 0 358 10 29 28 11 1 358 357 353 349 345 339 334 329 324 321 321 320 318 311 298 284 278 280 285 288 288 287 289 290 287 284 282 277 268 259 254 251 248 244 240 239 240 240 240 239 238 238 238 238 237 236 235 233 231 231 229 227 228 230 229 230 230 232 236 230 222 221 216 215 218 225 239 255 254 256 273 280 286
28 7 350 354 3 0 360 19 33 20 8 3 359 354 348 342 336 327 322 319 315 314 318 318 314 312 308 298 287 282 283 284 284 285 288 290 289 288 287 282 274 265 257 251 249 246 240 239 240 239 239 238 237 237 238 238 237 237 235 233 233 232 230 227 227 228 227 227 228 229 234 235 234 236 230 223 221 225 235 243 253 271 286 278 283
29 7 347 351 357 351 358 30 30 15 5 358 350 344 335 329 323 312 308 307 305 307 315 316 312 311 311 308 301 294 288 284 282 284 287 290 290 290 288 285 280 274 264 255 250 247 242 239 238 238 238 237 237 237 237 237 236 235 234 233 232 231 229 228 227 227 226 226 227 227 231 234 236 238 240 241 240 241 245 247 258 265 265 273 283
29 360 343 345 348 352 12 34 24 8 358 348 339 335 328 324 319 309 306 308 307 312 316 314 310 311 310 308 307 304 298 292 286 283 285 288 288 288 288 288 285 281 276 269 259 250 245 241 239 239 239 238 238 237 236 235 235 234 233 232 231 230 229 229 229 229 227 227 228 228 230 232 235 237 238 242 245 245 243 237 244 256 254 265 278
10 358 352 350 356 9 23 24 10 355 347 340 335 333 327 323 321 316 314 315 314 316 315 309 304 304 302 300 302 301 300 297 293 288 286 286 286 286 287 288 287 285 284 281 270 256 247 244 242 240 240 239 237 235 234 233 233 233 233 232 232 231 229 230 230 230 228 228 228 228 229 231 234 236 236 238 240 241 240 239 236 237 254 264 265
2 0 352 353 9 21 18 5 355 349 345 340 336 333 329 326 325 322 320 318 315 312 310 306 304 301 294 291 293 294 294 293 291 288 288 288 288 288 289 289 287 285 287 286 275 262 253 249 246 243 241 239 237 234 232 232 231 230 231 232 232 230 229 229 229 230 229 229 229 229 229 230 232 233 234 235 238 238 239 241 239 225 222 259 268
1 353 352 4 16 15 3 353 350 349 346 341 338 336 333 329 326 324 322 320 317 312 307 305 305 302 297 292 289 289 292 292 288 285 286 289 290 291 292 290 285 284 288 287 276 265 259 254 249 246 243 239 237 233 231 230 229 229 229 231 231 229 228 229 229 229 230 230 230 230 230 231 231 232 233 234 236 237 237 238 240 231 217 222 256
355 354 10 15 9 358 351 350 351 350 346 341 339 336 332 328 326 325 323 321 320 316 309 305 304 304 302 296 290 289 292 291 287 285 286 288 289 290 290 288 285 283 285 285 277 266 261 257 252 248 244 240 236 233 230 228 228 228 229 230 230 228 228 230 230 229 229 229 230 231 232 232 233 232 233 234 234 236 235 233 236 236 229 227 230
357 11 20 7 356 349 350 352 352 350 345 340 338 334 330 329 328 326 323 322 322 319 312 305 304 307 303 297 292 291 292 292 290 287 287 289 288 286 285 285 285 282 281 281 274 265 260 257 253 250 246 241 237 233 229 227 226 226 227 228 229 228 229 231 230 229 229 228 229 230 230 232 233 232 232 234 234 234 234 231 231 232 234 236 234
6 17 5 352 349 350 354 353 349 344 341 339 336 332 330 331 330 326 323 323 322 320 315 309 308 310 307 301 297 294 296 302 301 296 293 292 289 284 282 283 284 283 281 279 273 265 260 257 255 251 246 241 237 233 229 227 225 226 227 227 228 227 228 230 230 229 229 228 229 229 230 230 231 230 230 232 233 233 231 229 228 228 229 234 236
10 5 348 349 349 351 353 349 342 340 340 338 335 332 332 333 331 328 325 324 322 319 317 314 313 312 310 306 302 302 305 307 304 300 296 294 290 284 281 282 284 284 283 280 273 266 260 257 255 252 247 241 237 233 229 227 225 225 226 227 227 227 228 228 228 230 230 230 231 230 231 231 230 229 228 230 230 230 230 228 226 226 226 228 234
4 353 347 347 349 351 348 341 339 340 340 338 336 334 332 331 330 327 323 322 321 320 319 317 315 314 312 309 307 308 307 304 301 298 295 292 288 282 279 284 289 288 284 279 274 266 259 256 254 252 246 240 236 232 229 226 224 224 225 225 226 226 227 227 227 228 230 230 231 231 231 231 229 228 227 227 228 228 228 227 224 224 226 227 232
348 346 348 346 347 346 340 336 338 341 339 336 334 331 328 327 327 324 321 321 321 320 319 317 316 314 313 310 308 307 305 303 300 297 296 294 288 279 279 290 296 294 285 278 273 265 259 256 254 251 246 239 234 230 227 224 223 223 223 224 226 226 227 227 226 227 229 228 228 229 229 229 228 227 227 226 227 226 225 225 224 223 226 230 232
340 346 349 344 342 339 336 339 342 340 336 334 332 329 327 325 325 324 323 323 323 321 320 319 318 316 315 313 310 308 306 305 304 304 304 300 289 282 294 304 304 297 286 278 272 264 259 257 254 250 244 237 232 228 224 223 222 222 223 224 226 228 228 228 227 228 228 228 227 226 226 227 226 226 228 228 228 227 225 223 223 222 223 232 234
345 347 345 340 338 339 343 345 342 336 333 332 331 329 326 324 325 328 328 325 323 323 322 323 322 321 319 317 316 315 315 315 315 313 309 302 296 301 309 311 306 296 287 280 273 265 260 257 253 248 243 237 233 228 223 222 222 222 223 224 227 228 229 229 229 230 230 229 228 227 225 224 224 224 227 229 229 229 228 227 227 224 225 233 237
347 343 340 338 338 343 348 346 338 333 331 331 330 328 326 325 327 330 328 325 325 326 326 326 325 323 321 320 320 320 320 319 318 318 317 315 313 311 310 308 304 299 292 282 273 267 262 257 252 247 241 237 232 228 224 223 222 223 224 224 227 229 229 229 229 230 231 231 230 230 228 225 223 223 225 227 228 229 229 229 229 227 228 233 236
341 341 338 336 338 346 348 342 334 331 330 330 329 329 328 328 329 330 328 327 328 327 326 325 323 322 320 320 320 322 324 323 322 324 325 321 315 309 307 309 309 304 294 283 274 268 263 258 251 245 240 236 231 227 224 223 223 224 224 224 226 229 230 230 230 230 232 233 233 233 232 230 227 224 225 226 227 228 227 226 226 225 226 228 229
342 341 336 336 340 345 343 338 335 333 333 332 331 330 330 329 328 328 328 330 329 327 325 323 322 321 319 318 322 327 328 325 323 322 318 314 306 299 302 310 311 304 294 284 276 270 264 257 250 244 240 235 229 225 223 222 223 224 224 224 226 229 231 231 231 233 234 235 235 234 234 234 232 230 227 226 226 228 227 225 225 224 224 227 228
343 337 335 341 344 344 342 339 338 337 336 334 332 331 331 329 327 327 329 330 328 325 323 322 321 320 317 321 329 332 329 326 324 320 315 309 301 295 299 309 311 305 297 288 279 272 264 256 248 241 237 233 228 225 223 222 223 223 222 223 225 228 230 231 233 234 235 235 235 234 234 234 233 231 229 229 229 228 228 228 225 223 222 225 227
338 335 340 347 345 344 343 340 338 337 335 333 332 332 331 328 327 329 330 329 327 324 323 322 320 319 321 329 334 333 331 329 326 323 321 317 314 310 308 310 311 308 302 294 283 273 263 254 246 239 234 230 227 224 224 224 224 223 222 223 225 226 226 227 229 229 231 232 232 232 233 233 232 231 229 229 229 227 228 229 227 225 223 221 219
338 342 346 347 346 345 343 339 336 335 335 335 334 331 329 328 329 331 330 329 327 324 323 321 320 322 330 335 333 329 326 323 319 317 316 315 314 313 310 308 307 306 303 297 285 273 261 252 245 237 231 227 224 223 224 226 226 226 224 223 223 222 220 221 223 223 225 228 228 229 231 233 233 232 230 230 229 227 227 227 228 227 226 222 217
347 349 348 348 347 343 339 336 336 336 338 338 334 330 329 332 332 331 329 329 327 326 327 327 327 330 332 329 326 323 320 316 312 309 307 307 306 305 305 304 302 302 301 297 285 270 258 250 242 236 230 226 225 224 226 228 230 232 231 223 217 216 216 216 219 221 224 227 227 227 229 231 233 233 232 230 230 229 228 228 227 226 224 224 222
354 350 348 347 342 338 336 336 337 338 338 336 332 331 334 335 332 330 329 328 328 331 333 332 329 327 325 322 320 319 317 315 312 308 306 309 310 305 301 300 300 300 298 293 284 268 255 246 238 234 230 227 227 226 227 232 235 238 237 224 212 211 214 215 217 221 224 227 229 229 229 230 230 230 230 230 230 230 230 229 228 226 226 229 230
353 347 345 342 339 337 336 335 337 337 335 333 332 334 336 334 330 328 328 329 332 333 331 327 324 323 321 319 318 316 315 315 314 312 311 313 311 306 302 302 303 301 294 288 281 265 251 243 236 232 230 228 228 228 230 237 240 240 239 229 214 210 213 216 218 221 223 223 224 226 230 231 229 228 228 229 228 226 226 226 227 227 230 233 235
350 346 342 340 340 339 336 335 337 337 334 333 335 336 334 331 328 326 328 331 331 328 325 323 323 324 322 319 317 316 316 316 316 316 315 313 310 305 302 303 306 301 292 285 277 262 248 240 234 230 228 228 230 230 232 239 242 240 239 233 220 214 214 217 219 221 221 222 223 224 227 230 231 231 229 226 222 219 218 221 224 227 231 234 235
348 345 340 339 340 338 335 334 335 335 334 334 335 334 330 327 326 327 329 330 327 324 322 322 322 322 321 320 318 317 317 317 317 316 314 312 311 307 304 306 306 300 291 282 272 257 245 238 232 229 228 230 232 233 233 238 242 241 239 235 230 221 215 214 217 219 221 224 226 226 226 227 230 233 230 223 217 213 212 216 220 224 229 232 236
343 340 337 338 337 334 333 333 333 333 333 333 332 330 328 325 325 329 330 328 325 323 323 323 321 321 320 319 319 317 316 315 315 314 313 313 312 311 311 309 303 295 289 282 268 253 242 236 230 227 227 229 233 233 233 238 241 242 240 238 238 234 226 219 218 220 223 227 229 228 226 226 229 232 231 224 217 211 210 212 215 220 225 230 236
340 337 336 339 338 335 333 332 332 333 333 332 331 330 328 325 327 331 330 327 325 324 324 324 323 321 320 319 318 317 315 315 315 313 313 311 309 309 309 306 300 294 291 285 268 250 239 233 229 226 225 228 233 233 234 240 244 243 240 239 236 234 233 232 228 226 226 227 228 228 227 225 227 231 231 227 221 212 208 207 210 216 222 227 233
342 339 337 338 338 336 334 334 335 335 334 334 333 330 327 325 329 331 329 326 326 326 326 325 322 321 320 318 318 316 314 314 314 313 312 309 307 307 306 305 303 300 293 283 266 246 234 229 226 226 226 228 234 238 239 242 245 245 242 240 235 229 228 230 230 229 229 228 226 226 227 226 226 228 228 227 223 214 207 205 209 214 218 225 230
344 341 338 339 339 338 337 337 338 336 335 335 333 329 326 327 330 331 329 328 328 327 325 323 321 320 319 318 318 317 315 314 313 312 311 309 308 306 303 304 306 301 286 272 259 241 231 227 224 227 229 229 235 242 243 243 245 245 242 240 236 228 224 224 223 224 228 231 229 228 231 231 230 229 227 227 226 218 209 205 206 209 212 222 231
344 340 339 339 339 338 338 336 337 337 336 335 333 330 327 328 332 332 330 329 328 326 324 322 321 320 319 319 318 317 316 315 313 312 310 308 308 306 303 307 309 299 277 262 256 241 230 227 225 228 233 234 237 242 245 246 246 245 243 241 236 227 222 221 220 221 225 229 229 228 231 233 232 230 228 226 228 227 217 205 205 209 214 224 234
343 342 341 339 337 336 336 334 335 338 337 335 333 329 326 328 331 332 330 329 327 326 323 322 321 320 319 319 318 318 317 315 313 312 309 308 309 307 306 311 310 297 278 267 257 244 234 229 230 233 238 242 244 247 250 251 250 249 246 242 236 227 218 216 217 220 224 227 228 228 229 231 230 229 228 225 226 231 223 208 206 211 216 222 229
341 341 341 339 337 335 334 332 334 338 338 336 333 329 328 330 330 329 330 328 327 325 324 323 322 320 320 320 319 319 318 315 314 313 311 310 309 306 309 314 308 294 288 277 256 247 243 239 242 245 247 252 255 255 256 254 253 252 247 241 236 226 216 212 214 219 225 229 231 231 230 231 228 225 226 223 222 228 227 215 211 214 217 220 223
340 339 339 339 337 334 332 330 332 336 337 336 334 330 330 331 330 330 330 329 327 326 325 324 323 322 321 321 320 320 319 318 317 316 314 312 310 308 313 316 305 291 287 278 261 256 253 250 257 258 258 261 262 263 263 258 252 251 247 241 233 224 215 210 211 219 226 229 231 234 235 236 232 226 224 222 222 226 228 222 217 216 218 223 226
337 337 337 338 337 335 332 331 332 335 336 336 335 333 331 330 330 330 330 329 328 327 325 324 324 324 323 322 322 322 321 321 321 319 316 314 311 312 318 317 305 289 284 278 269 261 253 252 259 261 264 268 266 264 266 265 257 251 246 240 232 225 219 212 211 219 228 233 238 238 233 231 229 222 219 219 222 226 225 219 216 218 223 232 239
337 337 337 337 336 335 334 332 332 334 335 335 334 334 332 329 329 331 331 330 329 327 326 325 325 325 325 324 324 323 324 325 324 322 317 315 314 316 320 318 306 289 281 278 273 265 257 257 261 262 266 272 271 264 263 266 264 253 243 237 230 225 222 217 214 218 224 232 239 237 225 219 219 217 217 218 219 219 209 198 200 212 222 228 228
337 336 336 336 335 335 334 332 331 333 334 333 332 333 332 330 330 331 332 331 330 329 327 326 326 326 326 326 324 324 325 327 326 323 321 323 325 325 322 317 307 295 285 277 273 271 266 262 265 270 271 271 273 271 265 264 263 252 240 233 226 222 223 226 227 226 228 235 240 234 220 213 208 202 205 206 196 180 173 176 185 196 202 203 203
334 334 335 335 335 334 332 330 330 331 332 332 332 332 332 332 332 333 333 332 331 330 328 326 326 327 327 326 324 325 327 328 326 324 327 332 331 326 321 313 306 299 292 282 273 267 267 269 270 273 277 274 271 270 269 265 256 244 233 222 214 214 219 226 233 228 220 219 213 187 162 157 157 155 157 164 169 167 167 174 180 184 188 193 197
332 333 333 334 333 333 331 329 329 330 331 331 331 331 332 333 333 334 335 334 332 331 329 327 327 328 327 326 326 328 330 328 326 328 331 332 330 327 323 317 310 299 283 277 273 265 265 273 273 268 274 280 281 283 283 265 239 227 216 195 187 192 201 209 205 171 159 160 151 138 133 131 132 136 142 149 158 164 169 179 188 193 205 217 222
331 331 331 331 331 331 330 328 328 329 330 330 331 331 333 334 335 336 336 335 334 332 329 329 329 328 327 328 329 331 331 329 328 331 332 331 330 331 329 325 321 310 286 272 272 269 263 264 269 274 273 273 284 298 306 288 241 234 212 182 175 178 186 199 198 166 150 144 133 126 123 121 121 123 131 143 153 157 160 171 189 209 228 236 236
331 331 331 331 331 331 329 328 328 329 329 330 331 332 334 336 337 338 337 336 336 333 329 329 328 326 327 329 330 330 331 330 330 333 333 332 331 332 333 333 333 328 311 284 275 279 274 260 262 277 280 271 285 305 314 312 294 270 244 222 212 200 194 202 205 182 159 149 142 133 123 117 116 114 116 127 141 148 152 159 180 212 235 237 231